Location: Fort Wayne
(41.1310°N, 85.1290°W)
Time: 12:40:20
(UTC-05:00)

Meteor 2-10 Rocket - Visible Passes

Search period start: 19 November 2017 00:00
Search period end: 29 November 2017 00:00
Orbit: 734 x 885 km, 81.2° (Epoch: 19 November)

Date Brightness Start Highest point End Pass type
(mag) Time Alt. Az. Time Alt. Az. Time Alt. Az.
19 Nov 4.0 04:57:21 59° S 04:57:21 59° S 05:01:58 10° S visible
19 Nov 5.6 06:38:37 11° W 06:38:37 11° W 06:39:04 10° W visible
19 Nov 3.7 17:52:41 10° SSW 17:57:51 82° W 18:03:15 10° N visible
20 Nov 5.2 04:34:59 28° SSE 04:34:59 28° SSE 04:37:38 10° SSE visible
20 Nov 5.7 06:16:14 12° WSW 06:16:14 12° WSW 06:16:45 10° WSW visible
20 Nov 6.3 19:13:28 10° W 19:16:16 14° WNW 19:19:10 10° NNW visible
21 Nov 6.2 04:12:30 13° SSE 04:12:30 13° SSE 04:13:07 10° SSE visible
21 Nov 6.1 18:47:56 10° WSW 18:51:44 20° WNW 18:55:41 10° NNW visible
22 Nov 5.6 18:22:47 10° SW 18:27:15 28° WNW 18:31:52 10° NNW visible
23 Nov 5.1 17:57:56 10° SW 18:02:48 38° WNW 18:07:54 10° N visible
26 Nov 6.3 18:29:53 10° W 18:32:36 14° WNW 18:35:21 10° NNW visible
27 Nov 6.1 18:04:15 10° WSW 18:08:02 19° WNW 18:11:56 10° NNW visible
28 Nov 5.7 17:39:05 10° SW 17:43:32 26° WNW 17:48:11 10° NNW visible
